EUTELSAT 117 WEST B

Last updated on Sat Oct 05 2024 00:02:39 GMT+0000 (Coordinated Universal Time)

1 41589U 16038B 24277.37247969 -.00000007 00000+0 00000+0 0 9990 2 41589 0.0240 44.7366 0000159 141.8571 203.0783 1.00272491 30470
UTC large
Height (km)
Speed (km/s)
/
Latitude / Longitude
Inclination (degrees)
Orbital Period (minutes)
Azimuth
Elevation
Range (km)
Doppler Factor

Next 0 passes for location: London (51.5072 / 0.1276)

Sorry there are no passes over London.